World > North America > United States > Georgia

Hazlehurst, Georgia Regional Weather

Lat: 31.87N, Lon: 82.6W
Wx Zone: GAZ133Web Search

Helpful Tip: Abbreviated, 7 Day, 14 Day Forecasts. There is a weather forecast for every taste.

Feedback
Hazlehurst Weather Map
UTC Time: 10/21/2020, 11:11
Your Time:

Hazlehurst, GA Regional Weather

Expires:202010211200;;843318
ASUS42 KFFC 211110
RWRGA 
WEATHER ROUNDUP FOR GEORGIA
NATIONAL WEATHER SERVICE PEACHTREE CITY GA
700 AM EDT WED OCT 21 2020

NOTE: "FAIR" INDICATES FEW OR NO CLOUDS BELOW 12,000 FEET WITH NO
SIGNIFICANT WEATHER AND/OR OBSTRUCTIONS TO VISIBILITY. 

* = USE WITH CAUTION. THE STATIONS MARKED WITH AN ASTERISK MAY NOT
REPORT WEATHER SUCH AS PRECIPITATION, FOG, OR THUNDER AND ARE NOT 
QUALITY CONTROLLED BY NWS.

THE REMARK "TC" DENOTES TEMPERATURE READING IN DEGREES CELSIUS.


GAZ099>101-110>166-211200-
SOUTH GEORGIA
  
CITY           SKY/WX    TMP DP  RH WIND       PRES   REMARKS
SAVANNAH       MOCLDY    71  69  93 N3        30.14R                  
VALDOSTA       CLOUDY    73  70  90 NE7       30.10R                  
ALMA           CLOUDY    72  68  87 VRB5      30.12R                  
ST SIMONS      CLOUDY    76  72  87 CALM      30.09R                  
FT STEWART     MOCLDY    71  71 100 NE6       30.11R                  
ALBANY         CLOUDY    70  68  93 E8        30.14R                  
HUNTER AFB     MOCLDY    71  69  92 NE3       30.11R                  
MOODY AFB      CLOUDY    72  70  93 NE6       30.10R                  
BRUNSWICK      CLOUDY    73  68  84 NE3       30.10R                  

  
CITY           SKY/WX    TMP DP  RH WIND       PRES   REMARKS
BAINBRIDGE*    CLOUDY    70  69  95 E9        30.11R                  
MOULTRIE*      MOCLDY    70  68  94 NE3       30.11S                  
VIDALIA*       CLOUDY    70  64  83 NE5       30.15S                  
WAYCROSS*      MOCLDY    72  67  84 NE5       30.11R                  
DOUGLAS*       CLOUDY    71  70  96 NE5       30.14R                  
$$
  

SKY/WX - Weather  TMP - Temperature  DP - Dew Point  RH - Relative Humidity
WIND - Wind Direction/Speed PRES - Barometric Pressure VSB - Visibility
WCI - Wind Chill Index E13G22 Wind - East Wind 13 mph/Gusts of 22 mph